EW5123 Weather Reports


time (UTC)temp
C
wind
direction
speed
KPH
gust
KPH
rain 1hr
cm
rain 24hr
cm
rain mn
cm
humidity
%
barometer
mb
20260902054651 19 190 0.0 4.8 0.00 0.00 0.00 53 985.1
20260902054150 19 207 1.6 9.7 0.00 0.00 0.00 55 985.1
20260902053651 19 233 4.8 9.7 0.00 0.00 0.00 56 985.1
20260902053149 19 210 4.8 11.3 0.00 0.00 0.00 57 985.2
20260902052648 20 214 4.8 11.3 0.00 0.00 0.00 57 985.2
20260902052148 20 217 4.8 12.9 0.00 0.00 0.00 57 985.2
20260902051648 20 213 6.4 12.9 0.00 0.00 0.00 57 985.3
20260902051148 20 214 8.0 16.1 0.00 0.00 0.00 56 985.2
20260902050648 20 207 11.3 19.3 0.00 0.00 0.00 56 985.2
20260902050148 20 189 11.3 22.5 0.00 0.00 0.00 56 985.1
20260902045648 20 195 11.3 22.5 0.00 0.00 0.00 57 985.1
20260902045150 20 205 8.0 17.7 0.00 0.00 0.00 57 984.8
20260902045146 20 206 9.7 22.5 0.00 0.00 0.00 57 985.0
20260902044145 20 147 9.7 24.1 0.00 0.00 0.00 57 984.8
20260902043646 20 151 9.7 24.1 0.00 0.00 0.00 57 984.8
20260902043146 20 181 8.0 22.5 0.00 0.00 0.00 57 985.0
20260902042645 20 164 8.0 17.7 0.00 0.00 0.00 57 985.0
20260902042149 20 124 9.7 19.3 0.00 0.00 0.00 56 985.1
20260902042145 20 138 9.7 19.3 0.00 0.00 0.00 56 985.1
20260902041145 20 150 8.0 17.7 0.00 0.00 0.00 56 985.1
20260902040650 20 210 8.0 24.1 0.00 0.00 0.00 55 985.1
20260902040646 20 181 8.0 17.7 0.00 0.00 0.00 55 985.0
20260902035649 20 172 8.0 20.9 0.00 0.00 0.00 55 985.0
20260902035644 20 55 8.0 24.1 0.00 0.00 0.00 55 985.0
20260902035249 20 189 6.4 14.5 0.00 0.00 0.00 55 985.1
20260902034144 20 199 6.4 14.5 0.00 0.00 0.00 54 985.0
20260902033644 20 170 4.8 9.7 0.00 0.00 0.00 54 985.0
20260902033143 20 201 4.8 12.9 0.00 0.00 0.00 53 985.0
20260902032642 20 130 4.8 12.9 0.00 0.00 0.00 54 985.0
20260902032140 20 164 3.2 12.9 0.00 0.00 0.00 54 985.0
20260902031639 19 188 1.6 9.7 0.00 0.00 0.00 55 985.0
20260902031140 19 129 0.0 4.8 0.00 0.00 0.00 56 984.8
20260902030640 19 120 0.0 3.2 0.00 0.00 0.00 55 984.8
20260902030139 20 129 0.0 1.6 0.00 0.00 0.00 55 984.7
20260902025639 20 129 0.0 1.6 0.00 0.00 0.00 54 984.7
20260902025140 20 145 0.0 1.6 0.00 0.00 0.00 54 984.7
20260902024639 20 159 0.0 3.2 0.00 0.00 0.00 54 984.6
20260902024140 20 167 0.0 3.2 0.00 0.00 0.00 53 984.5
20260902023645 21 188 0.0 3.2 0.00 0.00 0.00 48 984.3
20260902023639 20 176 0.0 0.0 0.00 0.00 0.00 51 984.4
20260902023139 21 194 0.0 0.0 0.00 0.00 0.00 49 984.3
20260902022139 21 203 0.0 3.2 0.00 0.00 0.00 48 984.3
20260902021639 21 190 1.6 6.4 0.00 0.00 0.00 47 984.3
20260902021139 22 170 1.6 6.4 0.00 0.00 0.00 46 984.1
20260902020640 22 208 0.0 4.8 0.00 0.00 0.00 45 984.0
20260902020140 22 220 0.0 1.6 0.00 0.00 0.00 45 983.9
20260902015643 23 12 0.0 0.0 0.00 0.00 0.00 44 983.8
20260902015639 22 245 0.0 0.0 0.00 0.00 0.00 44 983.9
20260902014639 23 12 0.0 1.6 0.00 0.00 0.00 43 983.9
20260902014139 23 8 0.0 1.6 0.00 0.00 0.00 43 983.8
20260902013643 23 311 0.0 4.8 0.00 0.00 0.00 41 983.8
20260902013639 23 4 0.0 3.2 0.00 0.00 0.00 42 983.7
20260902012640 23 321 0.0 4.8 0.00 0.00 0.00 41 983.7
20260902012137 24 357 0.0 3.2 0.00 0.00 0.00 40 983.7
20260902011637 24 356 1.6 8.0 0.00 0.00 0.00 40 983.7
20260902011137 24 282 1.6 9.7 0.00 0.00 0.00 39 983.7
20260902010635 24 276 1.6 9.7 0.00 0.00 0.00 38 983.7
20260902010135 25 310 0.0 4.8 0.00 0.00 0.00 38 983.8
20260902005639 25 338 1.6 6.4 0.00 0.00 0.00 36 983.7
20260902005635 25 273 0.0 6.4 0.00 0.00 0.00 38 983.8
20260902004636 25 316 1.6 8.0 0.00 0.00 0.00 36 983.5
20260902004135 26 319 0.0 8.0 0.00 0.00 0.00 35 983.5
20260902003635 26 237 1.6 11.3 0.00 0.00 0.00 34 983.5
20260902003142 26 342 1.6 11.3 0.00 0.00 0.00 32 983.5
20260902003136 26 330 3.2 11.3 0.00 0.00 0.00 33 983.5
20260902002637 26 2 1.6 11.3 0.00 0.00 0.00 33 983.4
20260902001633 26 14 3.2 14.5 0.00 0.00 0.00 31 983.5
20260902001138 27 307 3.2 14.5 0.00 0.00 0.00 31 983.5
20260902000633 27 330 1.6 9.7 0.00 0.00 0.00 29 983.4
20260902000133 27 309 1.6 9.7 0.00 0.00 0.00 29 983.4
20260901235633 27 304 1.6 9.7 0.00 0.00 0.00 29 983.4
20260901235134 27 317 0.0 3.2 0.00 0.00 0.00 29 983.4
20260901234637 27 145 0.0 1.6 0.00 0.00 0.00 27 983.4
20260901234633 27 170 0.0 1.6 0.00 0.00 0.00 27 983.4
20260901233633 27 145 0.0 1.6 0.00 0.00 0.00 27 983.4
20260901233133 27 148 0.0 0.0 0.00 0.00 0.00 26 983.3
20260901232633 27 148 0.0 1.6 0.00 0.00 0.00 26 983.4
20260901232133 27 148 0.0 1.6 0.00 0.00 0.00 26 983.4
20260901231633 27 195 0.0 1.6 0.00 0.00 0.00 26 983.4
20260901231133 28 115 0.0 1.6 0.00 0.00 0.00 25 983.4
20260901230631 28 146 0.0 4.8 0.00 0.00 0.00 25 983.4
20260901230131 28 137 1.6 8.0 0.00 0.00 0.00 25 983.4
20260901225631 28 185 1.6 8.0 0.00 0.00 0.00 24 983.4
20260901225129 29 184 0.0 1.6 0.00 0.00 0.00 25 983.4
20260901224629 30 141 0.0 4.8 0.00 0.00 0.00 24 983.4
20260901224129 30 285 0.0 4.8 0.00 0.00 0.00 24 983.4
20260901223634 30 236 0.0 4.8 0.00 0.00 0.00 25 983.5
20260901223629 30 7 0.0 3.2 0.00 0.00 0.00 23 983.5
20260901222629 29 334 0.0 4.8 0.00 0.00 0.00 26 983.5
20260901222128 30 337 0.0 1.6 0.00 0.00 0.00 24 983.7
20260901221627 30 246 0.0 1.6 0.00 0.00 0.00 26 983.8
20260901221131 29 219 0.0 3.2 0.00 0.00 0.00 23 983.8
20260901221127 29 156 0.0 0.0 0.00 0.00 0.00 25 983.8
20260901220127 28 36 0.0 3.2 0.00 0.00 0.00 23 983.9
20260901215627 29 131 0.0 1.6 0.00 0.00 0.00 24 983.9
20260901215127 28 158 0.0 1.6 0.00 0.00 0.00 24 984.0
20260901214627 28 117 0.0 1.6 0.00 0.00 0.00 25 984.0
20260901214127 27 1 0.0 1.6 0.00 0.00 0.00 25 984.1
20260901213627 27 141 0.0 3.2 0.00 0.00 0.00 27 984.1
20260901213125 27 326 0.0 3.2 0.00 0.00 0.00 26 984.1
20260901212630 27 210 1.6 8.0 0.00 0.00 0.00 27 984.3
20260901212625 26 290 1.6 4.8 0.00 0.00 0.00 27 984.3
20260901212125 27 248 1.6 4.8 0.00 0.00 0.00 26 984.3
20260901211130 27 193 1.6 8.0 0.00 0.00 0.00 26 984.4
20260901210623 27 245 0.0 4.8 0.00 0.00 0.00 25 984.5
20260901210123 27 213 0.0 6.4 0.00 0.00 0.00 26 984.5
20260901205632 28 102 1.6 11.3 0.00 0.00 0.00 25 984.6
20260901205623 28 297 0.0 6.4 0.00 0.00 0.00 25 984.5
20260901204628 29 169 3.2 9.7 0.00 0.00 0.00 24 984.6
20260901204624 28 124 3.2 11.3 0.00 0.00 0.00 26 984.6
20260901204228 30 217 0.0 6.4 0.00 0.00 0.00 27 984.7
20260901203622 30 159 1.6 8.0 0.00 0.00 0.00 24 984.7
20260901202621 29 206 1.6 8.0 0.00 0.00 0.00 26 984.8
20260901202121 30 139 1.6 8.0 0.00 0.00 0.00 26 984.8
20260901201621 30 203 0.0 3.2 0.00 0.00 0.00 25 985.0
20260901201121 29 114 0.0 3.2 0.00 0.00 0.00 26 985.0
20260901200621 29 129 0.0 1.6 0.00 0.00 0.00 27 985.0
20260901200120 28 131 0.0 4.8 0.00 0.00 0.00 28 985.1
20260901195622 28 116 1.6 4.8 0.00 0.00 0.00 28 985.2
20260901195618 27 122 3.2 8.0 0.00 0.00 0.00 28 985.3
20260901195223 27 243 3.2 12.9 0.00 0.00 0.00 30 985.3
20260901194116 27 238 3.2 12.9 0.00 0.00 0.00 29 985.3
20260901193616 26 262 1.6 8.0 0.00 0.00 0.00 30 985.6
20260901193121 26 236 1.6 9.7 0.00 0.00 0.00 30 985.6
20260901193116 26 229 1.6 4.8 0.00 0.00 0.00 29 985.6
20260901192115 26 192 1.6 9.7 0.00 0.00 0.00 30 985.7
20260901191615 26 333 3.2 9.7 0.00 0.00 0.00 29 985.8
20260901191114 26 191 3.2 9.7 0.00 0.00 0.00 28 985.8
20260901190614 27 309 6.4 17.7 0.00 0.00 0.00 27 985.9
20260901190118 27 182 3.2 17.7 0.00 0.00 0.00 30 985.8
20260901190114 27 256 6.4 17.7 0.00 0.00 0.00 28 985.8
20260901185114 26 156 1.6 12.9 0.00 0.00 0.00 32 985.9
20260901184623 26 224 3.2 11.3 0.00 0.00 0.00 31 985.9
20260901184619 26 234 1.6 12.9 0.00 0.00 0.00 30 986.0
20260901183616 26 212 6.4 14.5 0.00 0.00 0.00 31 986.1
20260901183115 26 219 6.4 14.5 0.00 0.00 0.00 30 986.0
20260901182615 26 208 6.4 19.3 0.00 0.00 0.00 29 986.1
20260901182118 26 252 4.8 14.5 0.00 0.00 0.00 32 986.3
20260901182114 26 221 4.8 19.3 0.00 0.00 0.00 28 986.0
20260901181115 26 242 6.4 14.5 0.00 0.00 0.00 33 986.4
20260901180614 25 212 8.0 19.3 0.00 0.00 0.00 33 986.4
20260901180114 25 201 8.0 24.1 0.00 0.00 0.00 30 986.5
20260901175619 25 198 3.2 14.5 0.00 0.00 0.00 38 986.6
20260901175615 25 174 4.8 24.1 0.00 0.00 0.00 33 986.5
20260901174618 24 222 6.4 14.5 0.00 0.00 0.00 37 986.9
20260901174614 25 205 4.8 14.5 0.00 0.00 0.00 38 986.7
20260901173619 24 200 6.4 16.1 0.00 0.00 0.00 36 986.7
20260901173615 24 167 6.4 16.1 0.00 0.00 0.00 37 986.7
20260901172612 24 196 6.4 17.7 0.00 0.00 0.00 37 986.9
20260901172113 24 167 6.4 17.7 0.00 0.00 0.00 36 987.0
20260901171612 23 210 6.4 14.5 0.00 0.00 0.00 39 987.0
20260901171111 23 215 6.4 16.1 0.00 0.00 0.00 40 987.1
20260901170610 22 180 4.8 16.1 0.00 0.00 0.00 44 987.2
20260901170109 22 214 4.8 11.3 0.00 0.00 0.00 46 987.2
20260901165613 21 251 3.2 8.0 0.00 0.00 0.00 51 987.3
20260901165609 21 224 3.2 11.3 0.00 0.00 0.00 50 987.3
20260901164606 20 212 1.6 14.5 0.00 0.00 0.00 51 987.3
20260901164106 20 229 1.6 14.5 0.00 0.00 0.00 50 987.4
20260901163607 20 245 3.2 9.7 0.00 0.00 0.00 50 987.3
20260901163109 20 333 3.2 9.7 0.00 0.00 0.00 51 987.3
20260901163105 20 243 1.6 8.0 0.00 0.00 0.00 52 987.3
20260901162104 20 208 1.6 8.0 0.00 0.00 0.00 52 987.3
20260901161607 20 304 0.0 8.0 0.00 0.00 0.00 52 987.3
20260901161603 20 311 0.0 4.8 0.00 0.00 0.00 54 987.3
20260901160601 20 308 0.0 4.8 0.00 0.00 0.00 53 987.3
20260901160100 19 203 1.6 8.0 0.00 0.00 0.00 54 987.2
20260901155600 19 165 3.2 9.7 0.00 0.00 0.00 54 987.2
20260901155104 19 217 1.6 12.9 0.00 0.00 0.00 54 987.2
20260901155100 19 191 3.2 12.9 0.00 0.00 0.00 55 987.2
20260901154101 19 290 1.6 4.8 0.00 0.00 0.00 54 987.1
20260901153601 19 214 1.6 11.3 0.00 0.00 0.00 55 987.2
20260901153100 19 252 3.2 14.5 0.00 0.00 0.00 55 987.1
20260901152605 18 316 1.6 12.9 0.00 0.00 0.00 55 987.1
20260901152559 18 222 3.2 14.5 0.00 0.00 0.00 55 987.1
20260901151558 18 245 1.6 8.0 0.00 0.00 0.00 56 987.1
20260901151058 18 221 3.2 12.9 0.00 0.00 0.00 55 987.0
20260901150558 18 318 3.2 12.9 0.00 0.00 0.00 56 986.9
20260901150058 18 242 1.6 8.0 0.00 0.00 0.00 56 986.9
20260901145103 18 290 4.8 11.3 0.00 0.00 0.00 55 986.9
20260901145058 18 303 1.6 8.0 0.00 0.00 0.00 56 986.9
20260901144559 18 201 3.2 11.3 0.00 0.00 0.00 55 986.9
20260901143558 18 226 6.4 16.1 0.00 0.00 0.00 56 986.6
20260901143100 18 242 9.7 19.3 0.00 0.00 0.00 57 986.5
20260901143056 18 231 8.0 19.3 0.00 0.00 0.00 56 986.6
20260901142101 18 198 9.7 20.9 0.00 0.00 0.00 57 986.4
20260901142056 18 198 11.3 20.9 0.00 0.00 0.00 56 986.5
20260901141056 18 198 9.7 16.1 0.00 0.00 0.00 58 986.4
20260901140556 18 221 9.7 16.1 0.00 0.00 0.00 59 986.4
20260901140055 18 209 9.7 16.1 0.00 0.00 0.00 59 986.4
20260901135556 18 175 9.7 14.5 0.00 0.00 0.00 59 986.4
20260901135057 18 195 9.7 17.7 0.00 0.00 0.00 59 986.5
20260901134555 18 196 8.0 17.7 0.00 0.00 0.00 59 986.5
20260901134054 18 198 8.0 16.1 0.00 0.00 0.00 60 986.6
20260901133554 18 203 8.0 16.1 0.00 0.00 0.00 60 986.6
20260901133053 18 205 8.0 16.1 0.00 0.00 0.00 60 986.6
20260901132554 18 197 8.0 14.5 0.00 0.00 0.00 60 986.5
20260901132054 17 204 8.0 14.5 0.00 0.00 0.00 60 986.6
20260901131553 17 217 6.4 14.5 0.00 0.00 0.00 61 986.5
20260901131054 17 213 6.4 17.7 0.00 0.00 0.00 62 986.5
20260901130554 17 205 4.8 17.7 0.00 0.00 0.00 62 986.4
20260901130058 16 178 3.2 8.0 0.00 0.00 0.00 66 986.0
20260901130054 17 212 3.2 9.7 0.00 0.00 0.00 64 986.3
20260901125553 16 172 1.6 8.0 0.00 0.00 0.00 68 985.9
20260901124552 16 190 1.6 8.0 0.00 0.00 0.00 69 985.9
20260901124052 16 216 3.2 8.0 0.00 0.00 0.00 70 985.8
20260901123552 16 193 3.2 8.0 0.00 0.00 0.00 70 985.8
20260901123050 16 183 3.2 8.0 0.00 0.00 0.00 69 985.8
20260901122550 16 212 3.2 8.0 0.00 0.00 0.00 69 985.7
20260901122050 16 213 3.2 8.0 0.00 0.00 0.00 70 985.6
20260901121551 16 189 3.2 8.0 0.00 0.00 0.00 71 985.6
20260901121051 16 202 4.8 11.3 0.00 0.00 0.00 71 985.4
20260901120549 16 196 6.4 11.3 0.00 0.00 0.00 72 985.4
20260901120050 16 205 4.8 12.9 0.00 0.00 0.00 73 985.4
20260901115549 15 198 1.6 12.9 0.00 0.00 0.00 75 985.4
20260901115053 15 219 1.6 6.4 0.00 0.00 0.00 77 985.4
20260901115049 15 155 3.2 8.0 0.00 0.00 0.00 77 985.4
20260901114653 15 200 3.2 9.7 0.00 0.00 0.00 78 985.6
20260901114047 15 169 3.2 9.7 0.00 0.00 0.00 78 985.6
20260901113047 15 136 3.2 9.7 0.00 0.00 0.00 78 985.6
20260901112547 15 189 3.2 9.7 0.00 0.00 0.00 78 985.6
20260901112048 15 142 3.2 8.0 0.00 0.00 0.00 78 985.6
20260901111548 15 183 1.6 9.7 0.00 0.00 0.00 79 985.4
20260901111048 15 160 3.2 9.7 0.00 0.00 0.00 79 985.6
20260901110551 14 186 1.6 9.7 0.00 0.00 0.00 80 985.7
20260901110547 15 143 3.2 9.7 0.00 0.00 0.00 79 985.7
20260901105547 14 187 0.0 4.8 0.00 0.00 0.00 81 985.8
20260901105047 14 214 0.0 4.8 0.00 0.00 0.00 81 985.9
20260901104552 14 208 0.0 3.2 0.00 0.00 0.00 82 985.9
20260901104548 14 153 0.0 1.6 0.00 0.00 0.00 81 985.9
20260901103547 13 210 0.0 3.2 0.00 0.00 0.00 83 985.9
20260901103051 13 147 0.0 0.0 0.00 0.00 0.00 85 986.0
20260901103047 13 150 0.0 0.0 0.00 0.00 0.00 84 986.0
20260901102654 13 138 0.0 0.0 0.00 0.00 0.00 85 986.0
20260901101548 13 138 0.0 0.0 0.00 0.00 0.00 84 986.3
20260901101047 12 212 0.0 0.0 0.00 0.00 0.00 85 986.1
20260901100551 12 212 0.0 0.0 0.00 0.00 0.00 85 986.3
20260901100547 12 212 0.0 0.0 0.00 0.00 0.00 85 986.3
20260901095551 13 158 0.0 0.0 0.00 0.00 0.00 85 986.4
20260901095547 12 212 0.0 0.0 0.00 0.00 0.00 85 986.3
20260901094547 13 157 0.0 0.0 0.00 0.00 0.00 84 986.3
20260901094048 12 157 0.0 0.0 0.00 0.00 0.00 84 986.4
20260901093549 12 157 0.0 0.0 0.00 0.00 0.00 84 986.5
20260901093048 12 157 0.0 0.0 0.00 0.00 0.00 84 986.6
20260901092547 12 157 0.0 0.0 0.00 0.00 0.00 85 986.7
20260901092048 13 157 0.0 0.0 0.00 0.00 0.00 84 986.7
20260901091547 13 158 0.0 0.0 0.00 0.00 0.00 84 986.9
20260901091048 13 196 0.0 0.0 0.00 0.00 0.00 84 986.7
20260901090548 13 196 0.0 0.0 0.00 0.00 0.00 84 986.9
20260901090047 13 196 0.0 0.0 0.00 0.00 0.00 83 986.9
20260901085547 13 196 0.0 0.0 0.00 0.00 0.00 83 987.0
20260901085052 13 196 0.0 0.0 0.00 0.00 0.00 82 987.0
20260901085048 13 196 0.0 0.0 0.00 0.00 0.00 82 986.9
20260901084048 13 196 0.0 0.0 0.00 0.00 0.00 82 987.0
20260901083551 13 196 0.0 0.0 0.00 0.00 0.00 83 987.1
20260901083547 13 196 0.0 0.0 0.00 0.00 0.00 82 987.0
20260901082547 13 196 0.0 0.0 0.00 0.00 0.00 83 987.1
20260901082047 13 196 0.0 0.0 0.00 0.00 0.00 82 987.1
20260901081045 14 186 0.0 0.0 0.00 0.00 0.00 81 987.2
20260901080547 14 186 0.0 0.0 0.00 0.00 0.00 81 987.3
20260901080049 14 194 0.0 0.0 0.00 0.00 0.00 81 987.4
20260901080045 14 194 0.0 0.0 0.00 0.00 0.00 80 987.3
20260901075045 14 223 0.0 0.0 0.00 0.00 0.00 81 987.6
20260901074545 13 223 0.0 0.0 0.00 0.00 0.00 82 987.6
20260901074045 13 239 0.0 0.0 0.00 0.00 0.00 83 987.7
20260901073546 13 205 0.0 0.0 0.00 0.00 0.00 83 987.7
20260901073046 13 167 0.0 0.0 0.00 0.00 0.00 84 987.6
20260901072545 13 167 0.0 0.0 0.00 0.00 0.00 84 987.4
20260901072043 13 208 0.0 0.0 0.00 0.00 0.00 83 987.4
20260901071548 13 208 0.0 0.0 0.00 0.00 0.00 83 987.6
20260901071543 13 208 0.0 0.0 0.00 0.00 0.00 83 987.3
20260901071153 13 208 0.0 0.0 0.00 0.00 0.00 81 987.4
20260901071149 13 208 0.0 0.0 0.00 0.00 0.00 82 987.4
20260901070148 13 208 0.0 0.0 0.00 0.00 0.00 82 987.4
20260901065648 13 208 0.0 0.0 0.00 0.00 0.00 82 987.3
20260901065043 13 208 0.0 0.0 0.00 0.00 0.00 82 987.3
20260901064043 13 208 0.0 0.0 0.00 0.00 0.00 82 987.2
20260901063545 13 208 0.0 0.0 0.00 0.00 0.00 82 987.2
20260901063541 13 162 0.0 0.0 0.00 0.00 0.00 81 987.3
20260901062541 13 203 0.0 0.0 0.00 0.00 0.00 81 987.2
20260901062042 13 203 0.0 0.0 0.00 0.00 0.00 82 987.2
20260901061541 14 203 0.0 0.0 0.00 0.00 0.00 82 987.3
20260901061041 14 203 0.0 0.0 0.00 0.00 0.00 81 987.3
20260901060541 14 203 0.0 0.0 0.00 0.00 0.00 81 987.3
20260901060044 14 155 0.0 0.0 0.00 0.00 0.00 81 987.3
20260901060040 14 153 0.0 0.0 0.00 0.00 0.00 81 987.3
20260901055038 14 153 0.0 0.0 0.00 0.00 0.00 80 987.4